User: anonymous   Login
Location: Pleiades Observatory
(40.1297°N, 91.5238°W)
Time: 19:52:23
(UTC-05:00)
Language:

Cosmos 1842 Rocket - Orbit

View from above orbital plane
View from above orbital plane
View from above satellite
View from above satellite

Ground track
Ground track

The orbit data is extracted from the following two-line orbital elements,

1 17912U 87038B   18111.52288997 +.00000072 +00000-0 +59267-5 0  9991
2 17912 082.4991 121.0755 0018835 297.4755 062.4545 14.82972075652341
Epoch (UTC): 21 April 2018 12:32:57
Eccentricity: 0.0018835
inclination: 82.4991°
perigee height: 607 km
apogee height: 633 km
right ascension of ascending node: 121.0755°
argument of perigee: 297.4755°
revolutions per day: 14.82972075
mean anomaly at epoch: 62.4545°
orbit number at epoch: 65234

The dashed part of the orbit path shows where the satellite is in the earth's shadow,  

DLR